User: anonymous   Login
Location: Slidell
(30.2789°N, 89.7378°W)
Time: 01:57:59
(UTC-05:00)
Language:

Cosmos 2360 Rocket - Orbit

View from above orbital plane
View from above orbital plane
View from above satellite
View from above satellite

Ground track
Ground track

The orbit data is extracted from the following two-line orbital elements,

1 25407U 98045B   18109.43675455 -.00000216 +00000-0 -85871-4 0  9996
2 25407 071.0080 117.8534 0005554 105.5520 254.6216 14.15773094019267
Epoch (UTC): 19 April 2018 10:28:55
Eccentricity: 0.0005554
inclination: 71.0080°
perigee height: 835 km
apogee height: 843 km
right ascension of ascending node: 117.8534°
argument of perigee: 105.5520°
revolutions per day: 14.15773094
mean anomaly at epoch: 254.6216°
orbit number at epoch: 1926

The dashed part of the orbit path shows where the satellite is in the earth's shadow,  

DLR